owner,sensor,date,latitude,longitude,vertical_datum,wind_speed,wind_to_direction,wind_speed_of_gust,qcFlag 
DISL,ioos:station:DISL:DISL:1,2009-01-01T06:30:00Z,30.2513,-88.0778,9.68,9.92,36.98,-9999.0,'1111122,1111122,1111122' 
DISL,ioos:station:DISL:DISL:1,2009-01-01T07:00:00Z,30.2513,-88.0778,9.68,9.59,36.52,-9999.0,'1111122,1111122,1111122' 
DISL,ioos:station:DISL:DISL:1,2009-01-01T07:30:00Z,30.2513,-88.0778,9.68,9.46,31.29,-9999.0,'1111122,1111122,1111122' 
DISL,ioos:station:DISL:DISL:1,2009-01-01T08:00:00Z,30.2513,-88.0778,9.68,8.99,42.43,-9999.0,'1111122,1111122,1111122' 
DISL,ioos:station:DISL:DISL:1,2009-01-01T08:30:00Z,30.2513,-88.0778,9.68,8.72,49.62,-9999.0,'1111122,1111122,1111122' 
DISL,ioos:station:DISL:DISL:1,2009-01-01T09:00:00Z,30.2513,-88.0778,9.68,8.57,47.46,-9999.0,'1111122,1111122,1111122' 
DISL,ioos:station:DISL:DISL:1,2009-01-01T09:30:00Z,30.2513,-88.0778,9.68,9.21,52.88,-9999.0,'1111122,1111122,1111122' 
DISL,ioos:station:DISL:DISL:1,2009-01-01T10:00:00Z,30.2513,-88.0778,9.68,8.92,58.77,-9999.0,'1111122,1111122,1111122' 
DISL,ioos:station:DISL:DISL:1,2009-01-01T10:30:00Z,30.2513,-88.0778,9.68,9.11,63.0,-9999.0,'1111122,1111122,1111122' 
DISL,ioos:station:DISL:DISL:1,2009-01-01T11:00:00Z,30.2513,-88.0778,9.68,8.42,73.5,-9999.0,'1111122,1111122,1111122' 
DISL,ioos:station:DISL:DISL:1,2009-01-01T11:30:00Z,30.2513,-88.0778,9.68,8.02,70.8,-9999.0,'1111122,1111122,1111122' 
DISL,ioos:station:DISL:DISL:1,2009-01-01T12:00:00Z,30.2513,-88.0778,9.68,6.94,64.31,-9999.0,'1111122,1111122,1111122' 
DISL,ioos:station:DISL:DISL:1,2009-01-01T12:30:00Z,30.2513,-88.0778,9.68,7.33,64.66,-9999.0,'1111122,1111122,1111122' 
DISL,ioos:station:DISL:DISL:1,2009-01-01T13:00:00Z,30.2513,-88.0778,9.68,7.84,65.96,-9999.0,'1111122,1111122,1111122' 
DISL,ioos:station:DISL:DISL:1,2009-01-01T13:30:00Z,30.2513,-88.0778,9.68,7.61,63.81,-9999.0,'1111122,1111122,1111122' 
DISL,ioos:station:DISL:DISL:1,2009-01-01T14:00:00Z,30.2513,-88.0778,9.68,7.33,65.56,-9999.0,'1111122,1111122,1111122' 
DISL,ioos:station:DISL:DISL:1,2009-01-01T14:30:00Z,30.2513,-88.0778,9.68,6.5,69.87,-9999.0,'1111122,1111122,1111122' 
DISL,ioos:station:DISL:DISL:1,2009-01-01T15:00:00Z,30.2513,-88.0778,9.68,6.06,62.38,-9999.0,'1111122,1111122,1111122' 
DISL,ioos:station:DISL:DISL:1,2009-01-01T15:30:00Z,30.2513,-88.0778,9.68,5.21,61.82,-9999.0,'1111122,1111122,1111122' 
DISL,ioos:station:DISL:DISL:1,2009-01-01T16:00:00Z,30.2513,-88.0778,9.68,5.76,56.6,-9999.0,'1111122,1111122,1111122' 
DISL,ioos:station:DISL:DISL:1,2009-01-01T16:30:00Z,30.2513,-88.0778,9.68,6.3,104.7,-9999.0,'1111122,1111122,1111122' 
DISL,ioos:station:DISL:DISL:1,2009-01-01T17:00:00Z,30.2513,-88.0778,9.68,5.23,119.8,-9999.0,'1111122,1111122,1111122' 
DISL,ioos:station:DISL:DISL:1,2009-01-01T17:30:00Z,30.2513,-88.0778,9.68,5.56,104.6,-9999.0,'1111122,1111122,1111122' 
DISL,ioos:station:DISL:DISL:1,2009-01-01T18:00:00Z,30.2513,-88.0778,9.68,5.86,117.5,-9999.0,'1111122,1111122,1111122' 
DISL,ioos:station:DISL:DISL:1,2009-01-01T18:30:00Z,30.2513,-88.0778,9.68,5.62,117.0,-9999.0,'1111122,1111122,1111122' 
DISL,ioos:station:DISL:DISL:1,2009-01-01T19:00:00Z,30.2513,-88.0778,9.68,6.51,113.6,-9999.0,'1111122,1111122,1111122' 
DISL,ioos:station:DISL:DISL:1,2009-01-01T19:30:00Z,30.2513,-88.0778,9.68,6.89,106.8,-9999.0,'1111122,1111122,1111122' 
DISL,ioos:station:DISL:DISL:1,2009-01-01T20:00:00Z,30.2513,-88.0778,9.68,7.31,109.5,-9999.0,'1111122,1111122,1111122' 
DISL,ioos:station:DISL:DISL:1,2009-01-01T20:30:00Z,30.2513,-88.0778,9.68,6.52,99.0,-9999.0,'1111122,1111122,1111122' 
DISL,ioos:station:DISL:DISL:1,2009-01-01T21:00:00Z,30.2513,-88.0778,9.68,5.96,94.1,-9999.0,'1111122,1111122,1111122' 
DISL,ioos:station:DISL:DISL:1,2009-01-01T21:30:00Z,30.2513,-88.0778,9.68,7.25,91.4,-9999.0,'1111122,1111122,1111122' 
DISL,ioos:station:DISL:DISL:1,2009-01-01T22:00:00Z,30.2513,-88.0778,9.68,6.65,94.7,-9999.0,'1111122,1111122,1111122' 
DISL,ioos:station:DISL:DISL:1,2009-01-01T22:30:00Z,30.2513,-88.0778,9.68,6.17,96.4,-9999.0,'1111122,1111122,1111122' 
DISL,ioos:station:DISL:DISL:1,2009-01-01T23:00:00Z,30.2513,-88.0778,9.68,5.17,89.5,-9999.0,'1111122,1111122,1111122' 
DISL,ioos:station:DISL:DISL:1,2009-01-01T23:30:00Z,30.2513,-88.0778,9.68,6.16,81.4,-9999.0,'1111122,1111122,1111122' 
DISL,ioos:station:DISL:DISL:1,2009-01-02T00:00:00Z,30.2513,-88.0778,9.68,7.43,83.4,-9999.0,'1111122,1111122,1111122' 
DISL,ioos:station:DISL:DISL:1,2009-01-02T00:30:00Z,30.2513,-88.0778,9.68,5.32,79.3,-9999.0,'1111122,1111122,1111122' 
DISL,ioos:station:DISL:DISL:1,2009-01-02T01:00:00Z,30.2513,-88.0778,9.68,5.3,71.2,-9999.0,'1111122,1111122,1111122' 
DISL,ioos:station:DISL:DISL:1,2009-01-02T01:30:00Z,30.2513,-88.0778,9.68,4.53,74.2,-9999.0,'1111122,1111122,1111122' 
DISL,ioos:station:DISL:DISL:1,2009-01-02T02:00:00Z,30.2513,-88.0778,9.68,3.54,116.8,-9999.0,'1111122,1111122,1111122' 
DISL,ioos:station:DISL:DISL:1,2009-01-02T02:30:00Z,30.2513,-88.0778,9.68,4.92,132.7,-9999.0,'1111122,1111122,1111122' 
DISL,ioos:station:DISL:DISL:1,2009-01-02T03:00:00Z,30.2513,-88.0778,9.68,5.44,136.3,-9999.0,'1111122,1111122,1111122' 
DISL,ioos:station:DISL:DISL:1,2009-01-02T03:30:00Z,30.2513,-88.0778,9.68,5.21,132.6,-9999.0,'1111122,1111122,1111122' 
DISL,ioos:station:DISL:DISL:1,2009-01-02T04:00:00Z,30.2513,-88.0778,9.68,4.95,130.3,-9999.0,'1111122,1111122,1111122' 
DISL,ioos:station:DISL:DISL:1,2009-01-02T04:30:00Z,30.2513,-88.0778,9.68,4.46,136.0,-9999.0,'1111122,1111122,1111122' 
DISL,ioos:station:DISL:DISL:1,2009-01-02T05:00:00Z,30.2513,-88.0778,9.68,3.68,146.1,-9999.0,'1111122,1111122,1111122' 
DISL,ioos:station:DISL:DISL:1,2009-01-02T05:30:00Z,30.2513,-88.0778,9.68,3.44,137.8,-9999.0,'1111122,1111122,1111122' 
DISL,ioos:station:DISL:DISL:1,2009-01-02T06:00:00Z,30.2513,-88.0778,9.68,3.8,138.1,-9999.0,'1111122,1111122,1111122' 
DISL,ioos:station:DISL:DISL:1,2009-01-02T06:30:00Z,30.2513,-88.0778,9.68,3.26,133.1,-9999.0,'1111122,1111122,1111122' 
DISL,ioos:station:DISL:DISL:1,2009-01-02T07:00:00Z,30.2513,-88.0778,9.68,2.21,124.8,-9999.0,'1111122,1111122,1111122' 
DISL,ioos:station:DISL:DISL:1,2009-01-02T07:30:00Z,30.2513,-88.0778,9.68,2.52,133.6,-9999.0,'1111122,1111122,1111122' 
DISL,ioos:station:DISL:DISL:1,2009-01-02T08:00:00Z,30.2513,-88.0778,9.68,1.58,126.9,-9999.0,'1111122,1111122,1111122' 
DISL,ioos:station:DISL:DISL:1,2009-01-02T08:30:00Z,30.2513,-88.0778,9.68,1.79,129.2,-9999.0,'1111122,1111122,1111122' 
DISL,ioos:station:DISL:DISL:1,2009-01-02T09:00:00Z,30.2513,-88.0778,9.68,0.94,67.86,-9999.0,'1111122,1111122,1111122' 
DISL,ioos:station:DISL:DISL:1,2009-01-02T09:30:00Z,30.2513,-88.0778,9.68,1.46,337.3,-9999.0,'1111122,1111122,1111122' 
DISL,ioos:station:DISL:DISL:1,2009-01-02T10:00:00Z,30.2513,-88.0778,9.68,1.1,82.3,-9999.0,'1111122,1111122,1111122' 
DISL,ioos:station:DISL:DISL:1,2009-01-02T10:30:00Z,30.2513,-88.0778,9.68,3.51,72.9,-9999.0,'1111122,1111122,1111122' 
DISL,ioos:station:DISL:DISL:1,2009-01-02T11:00:00Z,30.2513,-88.0778,9.68,3.64,85.4,-9999.0,'1111122,1111122,1111122' 
DISL,ioos:station:DISL:DISL:1,2009-01-02T11:30:00Z,30.2513,-88.0778,9.68,3.45,93.3,-9999.0,'1111122,1111122,1111122' 
DISL,ioos:station:DISL:DISL:1,2009-01-02T12:00:00Z,30.2513,-88.0778,9.68,2.4,90.4,-9999.0,'1111122,1111122,1111122' 
DISL,ioos:station:DISL:DISL:1,2009-01-02T12:30:00Z,30.2513,-88.0778,9.68,1.9,97.1,-9999.0,'1111122,1111122,1111122' 
DISL,ioos:station:DISL:DISL:1,2009-01-02T13:00:00Z,30.2513,-88.0778,9.68,4.25,125.2,-9999.0,'1111122,1111122,1111122' 
DISL,ioos:station:DISL:DISL:1,2009-01-02T13:30:00Z,30.2513,-88.0778,9.68,3.8,111.9,-9999.0,'1111122,1111122,1111122' 
DISL,ioos:station:DISL:DISL:1,2009-01-02T14:00:00Z,30.2513,-88.0778,9.68,2.16,116.7,-9999.0,'1111122,1111122,1111122' 
DISL,ioos:station:DISL:DISL:1,2009-01-02T14:30:00Z,30.2513,-88.0778,9.68,1.07,68.34,-9999.0,'1111122,1111122,1111122' 
DISL,ioos:station:DISL:DISL:1,2009-01-02T15:00:00Z,30.2513,-88.0778,9.68,3.16,142.1,-9999.0,'1111122,1111122,1111122' 
DISL,ioos:station:DISL:DISL:1,2009-01-02T15:30:00Z,30.2513,-88.0778,9.68,3.12,136.2,-9999.0,'1111122,1111122,1111122' 
DISL,ioos:station:DISL:DISL:1,2009-01-02T16:00:00Z,30.2513,-88.0778,9.68,3.19,156.2,-9999.0,'1111122,1111122,1111122' 
DISL,ioos:station:DISL:DISL:1,2009-01-02T16:30:00Z,30.2513,-88.0778,9.68,3.8,159.2,-9999.0,'1111122,1111122,1111122' 
DISL,ioos:station:DISL:DISL:1,2009-01-02T17:00:00Z,30.2513,-88.0778,9.68,2.12,158.6,-9999.0,'1111122,1111122,1111122' 
DISL,ioos:station:DISL:DISL:1,2009-01-02T17:30:00Z,30.2513,-88.0778,9.68,1.91,172.6,-9999.0,'1111122,1111122,1111122' 
DISL,ioos:station:DISL:DISL:1,2009-01-02T18:00:00Z,30.2513,-88.0778,9.68,2.83,165.4,-9999.0,'1111122,1111122,1111122' 
DISL,ioos:station:DISL:DISL:1,2009-01-02T18:30:00Z,30.2513,-88.0778,9.68,2.11,186.7,-9999.0,'1111122,1111122,1111122' 
DISL,ioos:station:DISL:DISL:1,2009-01-02T19:00:00Z,30.2513,-88.0778,9.68,1.68,185.2,-9999.0,'1111122,1111122,1111122' 
DISL,ioos:station:DISL:DISL:1,2009-01-02T19:30:00Z,30.2513,-88.0778,9.68,2.06,175.2,-9999.0,'1111122,1111122,1111122' 
DISL,ioos:station:DISL:DISL:1,2009-01-02T20:00:00Z,30.2513,-88.0778,9.68,1.74,188.1,-9999.0,'1111122,1111122,1111122' 
DISL,ioos:station:DISL:DISL:1,2009-01-02T20:30:00Z,30.2513,-88.0778,9.68,1.25,208.6,-9999.0,'1111122,1111122,1111122' 
DISL,ioos:station:DISL:DISL:1,2009-01-02T21:00:00Z,30.2513,-88.0778,9.68,2.09,192.7,-9999.0,'1111122,1111122,1111122' 
DISL,ioos:station:DISL:DISL:1,2009-01-02T21:30:00Z,30.2513,-88.0778,9.68,1.4,168.9,-9999.0,'1111122,1111122,1111122' 
DISL,ioos:station:DISL:DISL:1,2009-01-02T22:00:00Z,30.2513,-88.0778,9.68,2.65,178.5,-9999.0,'1111122,1111122,1111122' 
DISL,ioos:station:DISL:DISL:1,2009-01-02T22:30:00Z,30.2513,-88.0778,9.68,1.75,183.8,-9999.0,'1111122,1111122,1111122' 
DISL,ioos:station:DISL:DISL:1,2009-01-02T23:00:00Z,30.2513,-88.0778,9.68,1.15,210.8,-9999.0,'1111122,1111122,1111122' 
DISL,ioos:station:DISL:DISL:1,2009-01-02T23:30:00Z,30.2513,-88.0778,9.68,0.88,182.2,-9999.0,'1111122,1111122,1111122' 
DISL,ioos:station:DISL:DISL:1,2009-01-03T00:00:00Z,30.2513,-88.0778,9.68,1.01,179.1,-9999.0,'1111122,1111122,1111122' 
DISL,ioos:station:DISL:DISL:1,2009-01-03T00:30:00Z,30.2513,-88.0778,9.68,1.15,200.1,-9999.0,'1111122,1111122,1111122' 
DISL,ioos:station:DISL:DISL:1,2009-01-03T01:00:00Z,30.2513,-88.0778,9.68,0.86,190.6,-9999.0,'1111122,1111122,1111122' 
DISL,ioos:station:DISL:DISL:1,2009-01-03T01:30:00Z,30.2513,-88.0778,9.68,1.27,173.8,-9999.0,'1111122,1111122,1111122' 
DISL,ioos:station:DISL:DISL:1,2009-01-03T02:00:00Z,30.2513,-88.0778,9.68,1.6,169.8,-9999.0,'1111122,1111122,1111122' 
DISL,ioos:station:DISL:DISL:1,2009-01-03T02:30:00Z,30.2513,-88.0778,9.68,1.12,202.3,-9999.0,'1111122,1111122,1111122' 
DISL,ioos:station:DISL:DISL:1,2009-01-03T03:00:00Z,30.2513,-88.0778,9.68,0.22,96.3,-9999.0,'1111122,1111122,1111122' 
DISL,ioos:station:DISL:DISL:1,2009-01-03T03:30:00Z,30.2513,-88.0778,9.68,0.88,175.3,-9999.0,'1111122,1111122,1111122' 
DISL,ioos:station:DISL:DISL:1,2009-01-03T04:00:00Z,30.2513,-88.0778,9.68,1.18,195.4,-9999.0,'1111122,1111122,1111122' 
DISL,ioos:station:DISL:DISL:1,2009-01-03T04:30:00Z,30.2513,-88.0778,9.68,0.92,204.2,-9999.0,'1111122,1111122,1111122' 
DISL,ioos:station:DISL:DISL:1,2009-01-03T05:00:00Z,30.2513,-88.0778,9.68,0.95,178.6,-9999.0,'1111122,1111122,1111122' 
DISL,ioos:station:DISL:DISL:1,2009-01-03T05:30:00Z,30.2513,-88.0778,9.68,0.67,179.1,-9999.0,'1111122,1111122,1111122' 
DISL,ioos:station:DISL:DISL:1,2009-01-03T06:00:00Z,30.2513,-88.0778,9.68,0.79,198.2,-9999.0,'1111122,1111122,1111122' 
DISL,ioos:station:DISL:DISL:1,2009-01-03T06:30:00Z,30.2513,-88.0778,9.68,0.66,184.0,-9999.0,'1111122,1111122,1111122' 
DISL,ioos:station:DISL:DISL:1,2009-01-03T07:00:00Z,30.2513,-88.0778,9.68,0.81,173.4,-9999.0,'1111122,1111122,1111122' 
DISL,ioos:station:DISL:DISL:1,2009-01-03T07:30:00Z,30.2513,-88.0778,9.68,1.48,175.1,-9999.0,'1111122,1111122,1111122' 
DISL,ioos:station:DISL:DISL:1,2009-01-03T08:00:00Z,30.2513,-88.0778,9.68,1.17,177.3,-9999.0,'1111122,1111122,1111122' 
DISL,ioos:station:DISL:DISL:1,2009-01-03T08:30:00Z,30.2513,-88.0778,9.68,0.48,186.5,-9999.0,'1111122,1111122,1111122' 
DISL,ioos:station:DISL:DISL:1,2009-01-03T09:00:00Z,30.2513,-88.0778,9.68,0.49,180.3,-9999.0,'1111122,1111122,1111122' 
DISL,ioos:station:DISL:DISL:1,2009-01-03T09:30:00Z,30.2513,-88.0778,9.68,0.96,108.4,-9999.0,'1111122,1111122,1111122' 
DISL,ioos:station:DISL:DISL:1,2009-01-03T10:00:00Z,30.2513,-88.0778,9.68,0.86,144.4,-9999.0,'1111122,1111122,1111122' 
DISL,ioos:station:DISL:DISL:1,2009-01-03T10:30:00Z,30.2513,-88.0778,9.68,0.86,147.4,-9999.0,'1111122,1111122,1111122' 
DISL,ioos:station:DISL:DISL:1,2009-01-03T11:00:00Z,30.2513,-88.0778,9.68,1.74,126.4,-9999.0,'1111122,1111122,1111122' 
DISL,ioos:station:DISL:DISL:1,2009-01-03T11:30:00Z,30.2513,-88.0778,9.68,1.98,131.4,-9999.0,'1111122,1111122,1111122' 
DISL,ioos:station:DISL:DISL:1,2009-01-03T12:00:00Z,30.2513,-88.0778,9.68,0.39,147.7,-9999.0,'1111122,1111122,1111122' 
DISL,ioos:station:DISL:DISL:1,2009-01-03T12:30:00Z,30.2513,-88.0778,9.68,1.12,119.6,-9999.0,'1111122,1111122,1111122' 
DISL,ioos:station:DISL:DISL:1,2009-01-03T13:00:00Z,30.2513,-88.0778,9.68,1.69,122.3,-9999.0,'1111122,1111122,1111122' 
DISL,ioos:station:DISL:DISL:1,2009-01-03T13:30:00Z,30.2513,-88.0778,9.68,2.36,130.1,-9999.0,'1111122,1111122,1111122' 
DISL,ioos:station:DISL:DISL:1,2009-01-03T14:00:00Z,30.2513,-88.0778,9.68,2.35,149.7,-9999.0,'1111122,1111122,1111122' 
DISL,ioos:station:DISL:DISL:1,2009-01-03T14:30:00Z,30.2513,-88.0778,9.68,1.87,148.3,-9999.0,'1111122,1111122,1111122' 
DISL,ioos:station:DISL:DISL:1,2009-01-03T15:00:00Z,30.2513,-88.0778,9.68,2.57,136.4,-9999.0,'1111122,1111122,1111122' 
DISL,ioos:station:DISL:DISL:1,2009-01-03T15:30:00Z,30.2513,-88.0778,9.68,2.64,134.5,-9999.0,'1111122,1111122,1111122' 
DISL,ioos:station:DISL:DISL:1,2009-01-03T16:00:00Z,30.2513,-88.0778,9.68,2.36,134.9,-9999.0,'1111122,1111122,1111122' 
DISL,ioos:station:DISL:DISL:1,2009-01-03T16:30:00Z,30.2513,-88.0778,9.68,3.04,130.3,-9999.0,'1111122,1111122,1111122' 
DISL,ioos:station:DISL:DISL:1,2009-01-03T17:00:00Z,30.2513,-88.0778,9.68,3.0,147.2,-9999.0,'1111122,1111122,1111122' 
DISL,ioos:station:DISL:DISL:1,2009-01-03T17:30:00Z,30.2513,-88.0778,9.68,4.32,140.4,-9999.0,'1111122,1111122,1111122' 
DISL,ioos:station:DISL:DISL:1,2009-01-03T18:00:00Z,30.2513,-88.0778,9.68,3.45,150.2,-9999.0,'1111122,1111122,1111122' 
DISL,ioos:station:DISL:DISL:1,2009-01-03T18:30:00Z,30.2513,-88.0778,9.68,3.56,150.2,-9999.0,'1111122,1111122,1111122' 
DISL,ioos:station:DISL:DISL:1,2009-01-03T19:00:00Z,30.2513,-88.0778,9.68,3.39,139.3,-9999.0,'1111122,1111122,1111122' 
DISL,ioos:station:DISL:DISL:1,2009-01-03T19:30:00Z,30.2513,-88.0778,9.68,3.8,142.3,-9999.0,'1111122,1111122,1111122' 
DISL,ioos:station:DISL:DISL:1,2009-01-03T20:00:00Z,30.2513,-88.0778,9.68,4.97,151.6,-9999.0,'1111122,1111122,1111122' 
DISL,ioos:station:DISL:DISL:1,2009-01-03T20:30:00Z,30.2513,-88.0778,9.68,4.27,160.5,-9999.0,'1111122,1111122,1111122' 
DISL,ioos:station:DISL:DISL:1,2009-01-03T21:00:00Z,30.2513,-88.0778,9.68,4.31,156.6,-9999.0,'1111122,1111122,1111122' 
DISL,ioos:station:DISL:DISL:1,2009-01-03T21:30:00Z,30.2513,-88.0778,9.68,4.29,155.3,-9999.0,'1111122,1111122,1111122' 
DISL,ioos:station:DISL:DISL:1,2009-01-03T22:00:00Z,30.2513,-88.0778,9.68,3.76,166.8,-9999.0,'1111122,1111122,1111122' 
DISL,ioos:station:DISL:DISL:1,2009-01-03T22:30:00Z,30.2513,-88.0778,9.68,2.56,158.9,-9999.0,'1111122,1111122,1111122' 
DISL,ioos:station:DISL:DISL:1,2009-01-03T23:00:00Z,30.2513,-88.0778,9.68,2.58,163.9,-9999.0,'1111122,1111122,1111122' 
DISL,ioos:station:DISL:DISL:1,2009-01-03T23:30:00Z,30.2513,-88.0778,9.68,3.61,182.8,-9999.0,'1111122,1111122,1111122' 
DISL,ioos:station:DISL:DISL:1,2009-01-04T00:00:00Z,30.2513,-88.0778,9.68,3.05,158.9,-9999.0,'1111122,1111122,1111122' 
DISL,ioos:station:DISL:DISL:1,2009-01-04T00:30:00Z,30.2513,-88.0778,9.68,3.71,121.6,-9999.0,'1111122,1111122,1111122' 
DISL,ioos:station:DISL:DISL:1,2009-01-04T01:00:00Z,30.2513,-88.0778,9.68,2.44,87.4,-9999.0,'1111122,1111122,1111122' 
DISL,ioos:station:DISL:DISL:1,2009-01-04T01:30:00Z,30.2513,-88.0778,9.68,2.79,21.2,-9999.0,'1111122,1111122,1111122' 
DISL,ioos:station:DISL:DISL:1,2009-01-04T02:00:00Z,30.2513,-88.0778,9.68,2.05,46.69,-9999.0,'1111122,1111122,1111122' 
DISL,ioos:station:DISL:DISL:1,2009-01-04T02:30:00Z,30.2513,-88.0778,9.68,4.22,39.35,-9999.0,'1111122,1111122,1111122' 
DISL,ioos:station:DISL:DISL:1,2009-01-04T03:00:00Z,30.2513,-88.0778,9.68,4.32,70.6,-9999.0,'1111122,1111122,1111122' 
DISL,ioos:station:DISL:DISL:1,2009-01-04T03:30:00Z,30.2513,-88.0778,9.68,3.37,105.0,-9999.0,'1111122,1111122,1111122' 
DISL,ioos:station:DISL:DISL:1,2009-01-04T04:00:00Z,30.2513,-88.0778,9.68,0.97,158.2,-9999.0,'1111122,1111122,1111122' 
DISL,ioos:station:DISL:DISL:1,2009-01-04T04:30:00Z,30.2513,-88.0778,9.68,1.0,127.4,-9999.0,'1111122,1111122,1111122' 
DISL,ioos:station:DISL:DISL:1,2009-01-04T05:00:00Z,30.2513,-88.0778,9.68,1.54,136.7,-9999.0,'1111122,1111122,1111122' 
DISL,ioos:station:DISL:DISL:1,2009-01-04T05:30:00Z,30.2513,-88.0778,9.68,1.73,219.6,-9999.0,'1111122,1111122,1111122' 
DISL,ioos:station:DISL:DISL:1,2009-01-04T06:00:00Z,30.2513,-88.0778,9.68,1.11,163.8,-9999.0,'1111122,1111122,1111122' 
DISL,ioos:station:DISL:DISL:1,2009-01-04T06:30:00Z,30.2513,-88.0778,9.68,2.31,207.2,-9999.0,'1111122,1111122,1111122' 
DISL,ioos:station:DISL:DISL:1,2009-01-04T07:00:00Z,30.2513,-88.0778,9.68,2.63,156.1,-9999.0,'1111122,1111122,1111122' 
DISL,ioos:station:DISL:DISL:1,2009-01-04T07:30:00Z,30.2513,-88.0778,9.68,4.86,133.5,-9999.0,'1111122,1111122,1111122' 
DISL,ioos:station:DISL:DISL:1,2009-01-04T08:00:00Z,30.2513,-88.0778,9.68,3.3,158.4,-9999.0,'1111122,1111122,1111122' 
DISL,ioos:station:DISL:DISL:1,2009-01-04T08:30:00Z,30.2513,-88.0778,9.68,3.82,152.0,-9999.0,'1111122,1111122,1111122' 
DISL,ioos:station:DISL:DISL:1,2009-01-04T09:00:00Z,30.2513,-88.0778,9.68,3.02,147.3,-9999.0,'1111122,1111122,1111122' 
DISL,ioos:station:DISL:DISL:1,2009-01-04T09:30:00Z,30.2513,-88.0778,9.68,2.2,122.8,-9999.0,'1111122,1111122,1111122' 
DISL,ioos:station:DISL:DISL:1,2009-01-04T10:00:00Z,30.2513,-88.0778,9.68,1.71,118.7,-9999.0,'1111122,1111122,1111122' 
DISL,ioos:station:DISL:DISL:1,2009-01-04T10:30:00Z,30.2513,-88.0778,9.68,3.74,112.8,-9999.0,'1111122,1111122,1111122' 
DISL,ioos:station:DISL:DISL:1,2009-01-04T11:00:00Z,30.2513,-88.0778,9.68,3.12,125.3,-9999.0,'1111122,1111122,1111122' 
DISL,ioos:station:DISL:DISL:1,2009-01-04T11:30:00Z,30.2513,-88.0778,9.68,2.38,139.5,-9999.0,'1111122,1111122,1111122' 
DISL,ioos:station:DISL:DISL:1,2009-01-04T12:00:00Z,30.2513,-88.0778,9.68,1.71,144.2,-9999.0,'1111122,1111122,1111122' 
DISL,ioos:station:DISL:DISL:1,2009-01-04T12:30:00Z,30.2513,-88.0778,9.68,1.78,115.7,-9999.0,'1111122,1111122,1111122' 
DISL,ioos:station:DISL:DISL:1,2009-01-04T13:00:00Z,30.2513,-88.0778,9.68,1.66,132.5,-9999.0,'1111122,1111122,1111122' 
DISL,ioos:station:DISL:DISL:1,2009-01-04T13:30:00Z,30.2513,-88.0778,9.68,2.04,129.0,-9999.0,'1111122,1111122,1111122' 
DISL,ioos:station:DISL:DISL:1,2009-01-04T14:00:00Z,30.2513,-88.0778,9.68,2.36,129.3,-9999.0,'1111122,1111122,1111122' 
DISL,ioos:station:DISL:DISL:1,2009-01-04T14:30:00Z,30.2513,-88.0778,9.68,2.38,129.6,-9999.0,'1111122,1111122,1111122' 
DISL,ioos:station:DISL:DISL:1,2009-01-04T15:00:00Z,30.2513,-88.0778,9.68,1.9,117.4,-9999.0,'1111122,1111122,1111122' 
DISL,ioos:station:DISL:DISL:1,2009-01-04T15:30:00Z,30.2513,-88.0778,9.68,2.72,110.7,-9999.0,'1111122,1111122,1111122' 
DISL,ioos:station:DISL:DISL:1,2009-01-04T16:00:00Z,30.2513,-88.0778,9.68,2.54,123.4,-9999.0,'1111122,1111122,1111122' 
DISL,ioos:station:DISL:DISL:1,2009-01-04T16:30:00Z,30.2513,-88.0778,9.68,2.73,124.4,-9999.0,'1111122,1111122,1111122' 
DISL,ioos:station:DISL:DISL:1,2009-01-04T17:00:00Z,30.2513,-88.0778,9.68,2.57,112.8,-9999.0,'1111122,1111122,1111122' 
DISL,ioos:station:DISL:DISL:1,2009-01-04T17:30:00Z,30.2513,-88.0778,9.68,2.55,118.4,-9999.0,'1111122,1111122,1111122' 
DISL,ioos:station:DISL:DISL:1,2009-01-04T18:00:00Z,30.2513,-88.0778,9.68,1.67,126.8,-9999.0,'1111122,1111122,1111122' 
DISL,ioos:station:DISL:DISL:1,2009-01-04T18:30:00Z,30.2513,-88.0778,9.68,1.05,114.3,-9999.0,'1111122,1111122,1111122' 
DISL,ioos:station:DISL:DISL:1,2009-01-04T19:00:00Z,30.2513,-88.0778,9.68,0.65,14.43,-9999.0,'1111122,1111122,1111122' 
DISL,ioos:station:DISL:DISL:1,2009-01-04T19:30:00Z,30.2513,-88.0778,9.68,1.53,77.5,-9999.0,'1111122,1111122,1111122' 
DISL,ioos:station:DISL:DISL:1,2009-01-04T20:00:00Z,30.2513,-88.0778,9.68,1.9,51.23,-9999.0,'1111122,1111122,1111122' 
DISL,ioos:station:DISL:DISL:1,2009-01-04T20:30:00Z,30.2513,-88.0778,9.68,0.94,56.22,-9999.0,'1111122,1111122,1111122' 
DISL,ioos:station:DISL:DISL:1,2009-01-04T21:00:00Z,30.2513,-88.0778,9.68,1.84,48.51,-9999.0,'1111122,1111122,1111122' 
DISL,ioos:station:DISL:DISL:1,2009-01-04T21:30:00Z,30.2513,-88.0778,9.68,1.86,68.88,-9999.0,'1111122,1111122,1111122' 
DISL,ioos:station:DISL:DISL:1,2009-01-04T22:00:00Z,30.2513,-88.0778,9.68,1.6,77.1,-9999.0,'1111122,1111122,1111122' 
DISL,ioos:station:DISL:DISL:1,2009-01-04T22:30:00Z,30.2513,-88.0778,9.68,1.03,81.0,-9999.0,'1111122,1111122,1111122' 
DISL,ioos:station:DISL:DISL:1,2009-01-04T23:00:00Z,30.2513,-88.0778,9.68,1.35,113.1,-9999.0,'1111122,1111122,1111122' 
DISL,ioos:station:DISL:DISL:1,2009-01-04T23:30:00Z,30.2513,-88.0778,9.68,1.81,116.5,-9999.0,'1111122,1111122,1111122' 
DISL,ioos:station:DISL:DISL:1,2009-01-05T00:00:00Z,30.2513,-88.0778,9.68,1.8,109.7,-9999.0,'1111122,1111122,1111122' 
DISL,ioos:station:DISL:DISL:1,2009-01-05T00:30:00Z,30.2513,-88.0778,9.68,1.56,109.6,-9999.0,'1111122,1111122,1111122' 
DISL,ioos:station:DISL:DISL:1,2009-01-05T01:00:00Z,30.2513,-88.0778,9.68,0.4,35.64,-9999.0,'1111122,1111122,1111122' 
DISL,ioos:station:DISL:DISL:1,2009-01-05T01:30:00Z,30.2513,-88.0778,9.68,0.96,100.0,-9999.0,'1111122,1111122,1111122' 
DISL,ioos:station:DISL:DISL:1,2009-01-05T02:00:00Z,30.2513,-88.0778,9.68,1.72,106.3,-9999.0,'1111122,1111122,1111122' 
DISL,ioos:station:DISL:DISL:1,2009-01-05T02:30:00Z,30.2513,-88.0778,9.68,2.12,117.5,-9999.0,'1111122,1111122,1111122' 
DISL,ioos:station:DISL:DISL:1,2009-01-05T03:00:00Z,30.2513,-88.0778,9.68,2.89,124.1,-9999.0,'1111122,1111122,1111122' 
DISL,ioos:station:DISL:DISL:1,2009-01-05T03:30:00Z,30.2513,-88.0778,9.68,1.46,103.2,-9999.0,'1111122,1111122,1111122' 
DISL,ioos:station:DISL:DISL:1,2009-01-05T04:00:00Z,30.2513,-88.0778,9.68,1.93,105.2,-9999.0,'1111122,1111122,1111122' 
DISL,ioos:station:DISL:DISL:1,2009-01-05T04:30:00Z,30.2513,-88.0778,9.68,2.79,120.3,-9999.0,'1111122,1111122,1111122' 
DISL,ioos:station:DISL:DISL:1,2009-01-05T05:00:00Z,30.2513,-88.0778,9.68,3.06,112.3,-9999.0,'1111122,1111122,1111122' 
DISL,ioos:station:DISL:DISL:1,2009-01-05T05:30:00Z,30.2513,-88.0778,9.68,2.16,118.4,-9999.0,'1111122,1111122,1111122' 
DISL,ioos:station:DISL:DISL:1,2009-01-05T06:00:00Z,30.2513,-88.0778,9.68,2.85,132.2,-9999.0,'1111122,1111122,1111122' 
DISL,ioos:station:DISL:DISL:1,2009-01-05T06:30:00Z,30.2513,-88.0778,9.68,2.49,127.6,-9999.0,'1111122,1111122,1111122' 
DISL,ioos:station:DISL:DISL:1,2009-01-05T07:00:00Z,30.2513,-88.0778,9.68,2.21,147.2,-9999.0,'1111122,1111122,1111122' 
DISL,ioos:station:DISL:DISL:1,2009-01-05T07:30:00Z,30.2513,-88.0778,9.68,2.18,136.9,-9999.0,'1111122,1111122,1111122' 
DISL,ioos:station:DISL:DISL:1,2009-01-05T08:00:00Z,30.2513,-88.0778,9.68,2.12,144.4,-9999.0,'1111122,1111122,1111122' 
DISL,ioos:station:DISL:DISL:1,2009-01-05T08:30:00Z,30.2513,-88.0778,9.68,1.84,143.4,-9999.0,'1111122,1111122,1111122' 
DISL,ioos:station:DISL:DISL:1,2009-01-05T09:00:00Z,30.2513,-88.0778,9.68,1.8,144.7,-9999.0,'1111122,1111122,1111122' 
DISL,ioos:station:DISL:DISL:1,2009-01-05T09:30:00Z,30.2513,-88.0778,9.68,2.1,147.3,-9999.0,'1111122,1111122,1111122' 
DISL,ioos:station:DISL:DISL:1,2009-01-05T10:00:00Z,30.2513,-88.0778,9.68,1.12,168.2,-9999.0,'1111122,1111122,1111122' 
DISL,ioos:station:DISL:DISL:1,2009-01-05T10:30:00Z,30.2513,-88.0778,9.68,1.53,164.0,-9999.0,'1111122,1111122,1111122' 